Time,TemperatureF,DewpointF,PressureIn,WindDirection,WindDirectionDegrees,WindSpeedMPH,WindSpeedGustMPH,Humidity,HourlyPrecipIn,Conditions,Clouds,dailyrainin,SoftwareType,DateUTC
2013-02-06 00:11:00,34.7,18.0,29.85,NNW,337,2.2,-999.0,50,-99.99,,,0.00,Acu-Link.com,2013-02-06 07:11:00,
2013-02-06 00:27:00,35.2,18.5,29.84,NNW,337,2.2,-999.0,50,-99.99,,,0.00,Acu-Link.com,2013-02-06 07:27:00,
2013-02-06 00:42:00,34.7,18.0,29.84,WNW,292,0.0,-999.0,50,-99.99,,,0.00,Acu-Link.com,2013-02-06 07:42:00,
2013-02-06 00:57:00,34.2,18.4,29.84,WNW,292,0.0,-999.0,52,-99.99,,,0.00,Acu-Link.com,2013-02-06 07:57:00,
2013-02-06 01:12:00,33.8,18.9,29.83,NW,315,0.0,-999.0,54,-99.99,,,0.00,Acu-Link.com,2013-02-06 08:12:00,
2013-02-06 01:28:00,33.6,18.8,29.82,NNW,337,2.2,-999.0,54,-99.99,,,0.00,Acu-Link.com,2013-02-06 08:28:00,
2013-02-06 01:43:00,33.6,18.8,29.82,NNW,337,2.2,-999.0,54,-99.99,,,0.00,Acu-Link.com,2013-02-06 08:43:00,
2013-02-06 01:58:00,34.2,19.7,29.82,North,0,2.2,-999.0,55,-99.99,,,0.00,Acu-Link.com,2013-02-06 08:58:00,
2013-02-06 02:13:00,33.6,19.2,29.81,ENE,67,2.2,-999.0,55,-99.99,,,0.00,Acu-Link.com,2013-02-06 09:13:00,
2013-02-06 02:28:00,33.3,19.7,29.82,NNE,22,2.2,-999.0,57,-99.99,,,0.00,Acu-Link.com,2013-02-06 09:28:00,
2013-02-06 02:44:00,33.6,19.6,29.81,North,0,3.8,-999.0,56,-99.99,,,0.00,Acu-Link.com,2013-02-06 09:44:00,
2013-02-06 02:59:00,33.8,19.8,29.81,NNE,22,4.7,-999.0,56,-99.99,,,0.00,Acu-Link.com,2013-02-06 09:59:00,
2013-02-06 03:14:00,34.0,19.5,29.80,NNW,337,4.7,-999.0,55,-99.99,,,0.00,Acu-Link.com,2013-02-06 10:14:00,
2013-02-06 03:29:00,34.0,19.5,29.80,West,270,7.8,-999.0,55,-99.99,,,0.00,Acu-Link.com,2013-02-06 10:29:00,
2013-02-06 03:44:00,33.6,19.6,29.80,NE,45,3.8,-999.0,56,-99.99,,,0.00,Acu-Link.com,2013-02-06 10:44:00,
2013-02-06 04:00:00,32.0,19.3,29.80,North,0,1.6,-999.0,59,-99.99,,,0.00,Acu-Link.com,2013-02-06 11:00:00,
2013-02-06 04:15:00,30.7,18.9,29.79,NNE,22,1.6,-999.0,61,-99.99,,,0.00,Acu-Link.com,2013-02-06 11:15:00,
2013-02-06 04:30:00,29.7,18.6,29.80,NNW,337,2.2,-999.0,63,-99.99,,,0.00,Acu-Link.com,2013-02-06 11:30:00,
2013-02-06 04:45:00,29.3,18.3,29.79,NNE,22,0.0,-999.0,63,-99.99,,,0.00,Acu-Link.com,2013-02-06 11:45:00,
2013-02-06 05:00:00,28.6,18.3,29.79,NNE,22,0.0,-999.0,65,-99.99,,,0.00,Acu-Link.com,2013-02-06 12:00:00,
2013-02-06 05:16:00,28.4,18.9,29.78,North,0,2.7,-999.0,67,-99.99,,,0.00,Acu-Link.com,2013-02-06 12:16:00,
2013-02-06 05:31:00,29.1,18.8,29.78,NE,45,2.2,-999.0,65,-99.99,,,0.00,Acu-Link.com,2013-02-06 12:31:00,
2013-02-06 05:46:00,28.8,18.5,29.78,North,0,2.2,-999.0,65,-99.99,,,0.00,Acu-Link.com,2013-02-06 12:46:00,
2013-02-06 06:01:00,29.1,18.8,29.78,NNW,337,3.8,-999.0,65,-99.99,,,0.00,Acu-Link.com,2013-02-06 13:01:00,
2013-02-06 06:17:00,29.1,18.5,29.78,NW,315,2.2,-999.0,64,-99.99,,,0.00,Acu-Link.com,2013-02-06 13:17:00,
2013-02-06 06:32:00,27.9,18.0,29.79,NW,315,1.1,-999.0,66,-99.99,,,0.00,Acu-Link.com,2013-02-06 13:32:00,
2013-02-06 06:47:00,27.1,17.7,29.80,West,270,0.0,-999.0,67,-99.99,,,0.00,Acu-Link.com,2013-02-06 13:47:00,
2013-02-06 07:02:00,25.9,18.1,29.81,West,270,0.0,-999.0,72,-99.99,,,0.00,Acu-Link.com,2013-02-06 14:02:00,
2013-02-06 07:17:00,27.0,20.1,29.81,NW,315,1.6,-999.0,75,-99.99,,,0.00,Acu-Link.com,2013-02-06 14:17:00,
2013-02-06 07:33:00,28.4,20.2,29.81,NNW,337,1.1,-999.0,71,-99.99,,,0.00,Acu-Link.com,2013-02-06 14:33:00,
2013-02-06 07:48:00,30.0,21.4,29.82,NNW,337,1.6,-999.0,70,-99.99,,,0.00,Acu-Link.com,2013-02-06 14:48:00,
2013-02-06 08:03:00,33.3,20.5,29.82,NNE,22,1.6,-999.0,59,-99.99,,,0.00,Acu-Link.com,2013-02-06 15:03:00,
2013-02-06 08:18:00,34.3,20.7,29.83,ENE,67,2.2,-999.0,57,-99.99,,,0.00,Acu-Link.com,2013-02-06 15:18:00,
2013-02-06 08:33:00,34.5,20.5,29.83,NE,45,2.7,-999.0,56,-99.99,,,0.00,Acu-Link.com,2013-02-06 15:33:00,
2013-02-06 08:49:00,35.2,21.1,29.83,NNW,337,0.0,-999.0,56,-99.99,,,0.00,Acu-Link.com,2013-02-06 15:49:00,
2013-02-06 09:04:00,37.4,22.3,29.83,NNW,337,2.7,-999.0,54,-99.99,,,0.00,Acu-Link.com,2013-02-06 16:04:00,
2013-02-06 09:19:00,38.8,21.3,29.83,West,270,2.2,-999.0,49,-99.99,,,0.00,Acu-Link.com,2013-02-06 16:19:00,
2013-02-06 09:34:00,42.8,21.3,29.83,NNE,22,1.6,-999.0,42,-99.99,,,0.00,Acu-Link.com,2013-02-06 16:34:00,
2013-02-06 09:49:00,44.2,20.9,29.83,SSE,157,2.7,-999.0,39,-99.99,,,0.00,Acu-Link.com,2013-02-06 16:49:00,
2013-02-06 10:05:00,44.2,20.9,29.83,SSW,202,0.0,-999.0,39,-99.99,,,0.00,Acu-Link.com,2013-02-06 17:05:00,
2013-02-06 10:20:00,45.9,21.1,29.82,SSW,202,1.1,-999.0,37,-99.99,,,0.00,Acu-Link.com,2013-02-06 17:20:00,
2013-02-06 10:35:00,49.5,22.3,29.82,NNW,337,0.0,-999.0,34,-99.99,,,0.00,Acu-Link.com,2013-02-06 17:35:00,
2013-02-06 10:50:00,50.4,22.4,29.82,South,180,3.8,-999.0,33,-99.99,,,0.00,Acu-Link.com,2013-02-06 17:50:00,
2013-02-06 11:06:00,51.3,22.4,29.82,South,180,3.8,-999.0,32,-99.99,,,0.00,Acu-Link.com,2013-02-06 18:06:00,
2013-02-06 11:21:00,53.1,23.2,29.81,South,180,4.7,-999.0,31,-99.99,,,0.00,Acu-Link.com,2013-02-06 18:21:00,
2013-02-06 11:36:00,55.0,23.4,29.81,SSE,157,2.2,-999.0,29,-99.99,,,0.00,Acu-Link.com,2013-02-06 18:36:00,
2013-02-06 11:51:00,56.7,23.9,29.79,SSE,157,4.3,-999.0,28,-99.99,,,0.00,Acu-Link.com,2013-02-06 18:51:00,
2013-02-06 12:06:00,56.1,24.3,29.78,SSE,157,4.3,-999.0,29,-99.99,,,0.00,Acu-Link.com,2013-02-06 19:06:00,
2013-02-06 12:22:00,57.4,25.4,29.77,SW,225,4.3,-999.0,29,-99.99,,,0.00,Acu-Link.com,2013-02-06 19:22:00,
2013-02-06 12:37:00,59.0,25.9,29.76,ESE,112,2.7,-999.0,28,-99.99,,,0.00,Acu-Link.com,2013-02-06 19:37:00,
2013-02-06 12:52:00,60.4,27.2,29.73,SSE,157,6.7,-999.0,28,-99.99,,,0.00,Acu-Link.com,2013-02-06 19:52:00,
2013-02-06 13:07:00,61.0,29.3,29.73,SSE,157,4.3,-999.0,30,-99.99,,,0.00,Acu-Link.com,2013-02-06 20:07:00,
2013-02-06 13:22:00,60.8,30.8,29.72,WNW,292,7.4,-999.0,32,-99.99,,,0.00,Acu-Link.com,2013-02-06 20:22:00,
2013-02-06 13:38:00,60.6,30.6,29.71,ENE,67,1.6,-999.0,32,-99.99,,,0.00,Acu-Link.com,2013-02-06 20:38:00,
2013-02-06 13:53:00,61.3,29.6,29.70,NNW,337,4.7,-999.0,30,-99.99,,,0.00,Acu-Link.com,2013-02-06 20:53:00,
2013-02-06 14:08:00,63.0,29.4,29.70,WNW,292,5.1,-999.0,28,-99.99,,,0.00,Acu-Link.com,2013-02-06 21:08:00,
2013-02-06 14:23:00,62.1,29.4,29.69,South,180,4.3,-999.0,29,-99.99,,,0.00,Acu-Link.com,2013-02-06 21:23:00,
2013-02-06 14:38:00,61.7,29.1,29.68,West,270,6.3,-999.0,29,-99.99,,,0.00,Acu-Link.com,2013-02-06 21:38:00,
2013-02-06 14:54:00,61.0,29.3,29.69,West,270,9.8,-999.0,30,-99.99,,,0.00,Acu-Link.com,2013-02-06 21:54:00,
2013-02-06 15:09:00,61.9,28.4,29.69,SSW,202,3.8,-999.0,28,-99.99,,,0.00,Acu-Link.com,2013-02-06 22:09:00,
2013-02-06 15:24:00,60.4,28.0,29.69,WNW,292,10.3,-999.0,29,-99.99,,,0.00,Acu-Link.com,2013-02-06 22:24:00,
2013-02-06 15:39:00,60.1,30.1,29.69,South,180,6.3,-999.0,32,-99.99,,,0.00,Acu-Link.com,2013-02-06 22:39:00,
2013-02-06 15:55:00,59.4,29.5,29.69,SSW,202,4.7,-999.0,32,-99.99,,,0.00,Acu-Link.com,2013-02-06 22:55:00,
2013-02-06 16:10:00,59.9,30.0,29.69,WSW,247,3.1,-999.0,32,-99.99,,,0.00,Acu-Link.com,2013-02-06 23:10:00,
2013-02-06 16:25:00,59.7,30.6,29.69,WSW,247,2.7,-999.0,33,-99.99,,,0.00,Acu-Link.com,2013-02-06 23:25:00,
2013-02-06 16:40:00,59.5,30.4,29.70,SW,225,3.8,-999.0,33,-99.99,,,0.00,Acu-Link.com,2013-02-06 23:40:00,
2013-02-06 16:55:00,59.0,29.9,29.70,WSW,247,6.3,-999.0,33,-99.99,,,0.00,Acu-Link.com,2013-02-06 23:55:00,
2013-02-06 17:11:00,58.5,28.7,29.70,West,270,3.8,-999.0,32,-99.99,,,0.00,Acu-Link.com,2013-02-07 00:11:00,
2013-02-06 17:26:00,58.1,27.6,29.71,NW,315,5.1,-999.0,31,-99.99,,,0.00,Acu-Link.com,2013-02-07 00:26:00,
2013-02-06 17:41:00,57.4,26.2,29.71,West,270,6.3,-999.0,30,-99.99,,,0.00,Acu-Link.com,2013-02-07 00:41:00,
2013-02-06 17:56:00,56.5,25.4,29.72,WNW,292,5.8,-999.0,30,-99.99,,,0.00,Acu-Link.com,2013-02-07 00:56:00,
2013-02-06 18:11:00,55.6,24.7,29.72,West,270,5.8,-999.0,30,-99.99,,,0.00,Acu-Link.com,2013-02-07 01:11:00,
2013-02-06 18:27:00,55.0,25.0,29.74,WNW,292,5.1,-999.0,31,-99.99,,,0.00,Acu-Link.com,2013-02-07 01:27:00,
2013-02-06 18:42:00,55.0,25.0,29.74,WNW,292,3.8,-999.0,31,-99.99,,,0.00,Acu-Link.com,2013-02-07 01:42:00,
2013-02-06 18:57:00,54.5,25.3,29.74,NNW,337,8.3,-999.0,32,-99.99,,,0.00,Acu-Link.com,2013-02-07 01:57:00,
2013-02-06 19:12:00,53.2,24.9,29.75,WNW,292,5.8,-999.0,33,-99.99,,,0.00,Acu-Link.com,2013-02-07 02:12:00,
2013-02-06 19:27:00,52.5,25.0,29.76,NW,315,4.3,-999.0,34,-99.99,,,0.00,Acu-Link.com,2013-02-07 02:27:00,
2013-02-06 19:43:00,52.0,25.2,29.75,WNW,292,4.7,-999.0,35,-99.99,,,0.00,Acu-Link.com,2013-02-07 02:43:00,
2013-02-06 19:58:00,51.6,24.9,29.76,NW,315,7.8,-999.0,35,-99.99,,,0.00,Acu-Link.com,2013-02-07 02:58:00,
2013-02-06 20:13:00,50.7,25.4,29.77,NW,315,6.3,-999.0,37,-99.99,,,0.00,Acu-Link.com,2013-02-07 03:13:00,
2013-02-06 20:28:00,50.9,25.6,29.79,West,270,7.4,-999.0,37,-99.99,,,0.00,Acu-Link.com,2013-02-07 03:28:00,
2013-02-06 20:44:00,50.5,25.9,29.79,NW,315,9.4,-999.0,38,-99.99,,,0.00,Acu-Link.com,2013-02-07 03:44:00,
2013-02-06 20:59:00,49.5,25.5,29.80,NW,315,7.4,-999.0,39,-99.99,,,0.00,Acu-Link.com,2013-02-07 03:59:00,
2013-02-06 21:14:00,48.4,25.2,29.80,WNW,292,6.7,-999.0,40,-99.99,,,0.00,Acu-Link.com,2013-02-07 04:14:00,
2013-02-06 21:29:00,47.5,25.5,29.80,North,0,5.8,-999.0,42,-99.99,,,0.00,Acu-Link.com,2013-02-07 04:29:00,
2013-02-06 21:44:00,46.9,25.6,29.81,West,270,6.7,-999.0,43,-99.99,,,0.00,Acu-Link.com,2013-02-07 04:44:00,
2013-02-06 22:00:00,46.8,25.5,29.81,WNW,292,5.1,-999.0,43,-99.99,,,0.00,Acu-Link.com,2013-02-07 05:00:00,
2013-02-06 22:15:00,46.0,25.9,29.82,NNW,337,4.3,-999.0,45,-99.99,,,0.00,Acu-Link.com,2013-02-07 05:15:00,
2013-02-06 22:30:00,44.8,25.3,29.82,ENE,67,2.7,-999.0,46,-99.99,,,0.00,Acu-Link.com,2013-02-07 05:30:00,
2013-02-06 22:45:00,44.2,25.3,29.82,NNE,22,4.3,-999.0,47,-99.99,,,0.00,Acu-Link.com,2013-02-07 05:45:00,
2013-02-06 23:00:00,44.4,26.5,29.83,WSW,247,4.3,-999.0,49,-99.99,,,0.00,Acu-Link.com,2013-02-07 06:00:00,
2013-02-06 23:16:00,45.7,26.6,29.83,NW,315,5.1,-999.0,47,-99.99,,,0.00,Acu-Link.com,2013-02-07 06:16:00,
2013-02-06 23:31:00,46.0,26.9,29.83,NNW,337,7.8,-999.0,47,-99.99,,,0.00,Acu-Link.com,2013-02-07 06:31:00,
2013-02-06 23:46:00,43.5,26.1,29.84,ENE,67,3.8,-999.0,50,-99.99,,,0.00,Acu-Link.com,2013-02-07 06:46:00,